Location: ?ejeti?ky
(50.4060°N, 14.9016°E)
Time: 07:09:15
(UTC+00:00)

N. Korean satellite - Pass Details

Date: 05 December 2021
Orbit: 446 x 491 km, 97.3° (Epoch: 18 January)

Event Time Altitude Azimuth Distance (km) Brightness Sun altitude
Rises 04:14:39 0° 15° (NNE) 2,472 10.2 -22.7°
Reaches altitude 10° 04:16:43 10° 18° (NNE) 1,590 9.3 -22.4°
Maximum altitude 04:20:06 65° 102° (ESE) 499 6.7 -21.9°
Drops below altitude 10° 04:23:26 10° 184° (S) 1,571 9.2 -21.4°
Sets 04:25:27 0° 188° (S) 2,438 10.2 -21.0°
